DW1174 Weather Reports


time (UTC)temp
C
wind
direction
speed
KPH
gust
KPH
rain 1hr
cm
rain 24hr
cm
rain mn
cm
humidity
%
barometer
mb
20260506062042 7 304 0.0 0.0 0.13 3.23 0.25 98 1004.9
20260506061946 7 304 0.0 0.0 0.13 3.23 0.25 98 1004.8
20260506061209 7 304 0.0 0.0 0.13 3.20 0.23 98 1004.9
20260506060427 7 304 0.0 0.0 0.13 3.20 0.23 98 1004.8
20260506060119 7 304 0.0 0.0 0.13 3.20 0.23 98 1004.8
20260506051016 7 304 0.0 0.0 0.08 3.07 0.10 98 1005.4
20260506050441 7 304 0.0 0.0 0.10 3.07 0.10 98 1005.5
20260506045127 8 304 0.0 0.0 0.13 3.07 0.10 98 1005.6
20260506044328 8 304 0.0 0.0 0.13 3.05 0.10 98 1005.7
20260506043751 8 304 0.0 0.0 0.13 3.07 0.08 98 1005.7
20260506043244 8 304 0.0 0.0 0.15 3.07 0.08 98 1005.8
20260506042713 8 304 0.0 0.0 0.18 3.07 0.08 98 1005.9
20260506042206 8 304 0.0 0.0 0.18 3.05 0.08 98 1006.1
20260506041710 8 304 0.0 0.0 0.20 3.05 0.05 98 1006.0
20260506041355 8 304 0.0 0.0 0.25 3.02 0.03 98 1006.1
20260506040600 8 304 0.0 0.0 0.25 3.00 0.03 98 1006.0
20260506040042 8 304 0.0 0.0 0.30 3.00 0.00 98 1005.9
20260506035537 8 304 0.0 0.0 0.36 3.00 3.00 98 1006.1
20260506034959 8 304 0.0 0.0 0.36 2.97 2.97 98 1006.2
20260506034655 8 304 0.0 0.0 0.36 2.95 2.97 98 1006.3
20260506033859 8 304 0.0 0.0 0.41 2.95 2.95 98 1006.3
20260506033342 8 304 0.0 0.0 0.41 2.92 2.92 98 1006.1
20260506032826 8 304 0.0 0.0 0.43 2.90 2.92 98 1006.1
20260506032320 8 304 0.0 0.0 0.46 2.90 2.90 98 1006.1
20260506031807 8 304 0.0 0.0 0.43 2.84 2.84 98 1006.0
20260506031255 8 304 0.0 0.0 0.43 2.79 2.79 98 1006.3
20260506030753 8 304 0.0 0.0 0.41 2.74 2.74 98 1006.0
20260506030253 8 304 0.0 0.0 0.41 2.72 2.72 98 1005.9
20260506025723 8 304 0.0 0.0 0.38 2.67 2.67 98 1005.9
20260506025151 8 304 0.0 0.0 0.36 2.62 2.62 98 1005.7
20260506024626 9 304 0.0 0.0 0.33 2.59 2.59 98 1005.7
20260506024313 9 304 0.0 0.0 0.33 2.57 2.57 98 1005.8
20260506023524 9 304 0.0 0.0 0.28 2.51 2.54 98 1005.8
20260506022951 9 304 0.0 0.0 0.28 2.49 2.49 98 1005.7
20260506022642 9 304 0.0 0.0 0.23 2.44 2.44 98 1005.9
20260506021845 9 304 0.0 0.0 0.23 2.44 2.44 98 1006.0
20260506021309 9 304 0.0 0.0 0.18 2.36 2.39 98 1006.0
20260506020739 9 304 0.0 0.0 0.18 2.34 2.34 98 1005.9
20260506020206 9 304 0.0 0.0 0.18 2.31 2.31 98 1005.9
20260506015858 9 304 0.0 0.0 0.15 2.29 2.29 98 1005.9
20260506015102 9 304 0.0 0.0 0.15 2.26 2.26 98 1005.7
20260506014548 9 304 0.0 0.0 0.13 2.24 2.24 98 1005.6
20260506014013 9 304 0.0 0.0 0.13 2.24 2.24 98 1005.5
20260506013434 9 304 0.0 0.0 0.13 2.24 2.24 98 1005.4
20260506012920 9 304 0.0 0.0 0.10 2.21 2.21 98 1005.4
20260506012347 9 304 0.0 0.0 0.10 2.21 2.21 98 1005.5
20260506011827 9 304 0.0 0.0 0.10 2.21 2.21 98 1005.4
20260506011319 9 304 0.0 0.0 0.08 2.18 2.18 98 1005.4
20260506010805 9 304 0.0 0.0 0.05 2.16 2.16 98 1005.4
20260506010239 9 304 0.0 0.0 0.03 2.13 2.13 98 1005.3
20260506005717 9 304 0.0 0.0 0.05 2.13 2.13 98 1005.4
20260506005131 9 304 0.0 0.0 0.03 2.11 2.11 98 1005.0
20260506004807 9 304 0.0 0.0 0.05 2.11 2.11 98 1005.2
20260506004230 9 304 0.0 0.0 0.05 2.11 2.11 98 1005.1
20260506003435 9 304 0.0 0.0 0.10 2.11 2.11 98 1005.1
20260506002912 8 304 0.0 0.0 0.13 2.11 2.11 98 1005.0
20260506002353 9 304 0.0 0.0 0.15 2.11 2.11 98 1005.0
20260506001852 9 304 0.0 0.0 0.33 2.11 2.11 98 1004.9
20260506001303 9 304 0.0 0.0 0.38 2.11 2.11 98 1004.9
20260506000723 8 304 0.0 0.0 0.38 2.11 2.11 97 1004.9
20260506000126 8 304 0.0 0.0 0.43 2.11 2.11 97 1005.1
20260505235607 8 304 0.0 0.0 0.46 2.08 2.08 97 1005.3
20260505235255 8 304 0.0 0.0 0.51 2.08 2.08 97 1005.4
20260505234726 8 304 0.0 0.0 0.53 2.06 2.06 97 1005.3
20260505234222 8 304 0.0 0.0 0.53 2.03 2.03 97 1005.4
20260505233433 8 304 0.0 0.0 0.56 2.01 2.01 97 1005.3
20260505232927 8 304 0.0 0.0 0.56 1.98 1.98 97 1005.4
20260505232405 8 304 0.0 0.0 0.53 1.96 1.96 97 1005.6
20260505231903 8 304 0.0 0.0 0.43 1.78 1.78 97 1005.4
20260505231312 8 304 0.0 0.0 0.43 1.73 1.73 97 1005.4
20260505230717 8 304 0.0 0.0 0.48 1.73 1.73 97 1005.0
20260505230153 8 304 0.0 0.0 0.51 1.70 1.70 97 1005.3
20260505225651 8 304 0.0 0.0 0.43 1.63 1.65 97 1005.3
20260505225344 8 304 0.0 0.0 0.41 1.57 1.60 97 1005.6
20260505224813 8 304 0.0 0.0 0.41 1.55 1.55 97 1005.4
20260505224053 8 304 0.0 0.0 0.41 1.50 1.50 96 1005.2
20260505223523 8 304 0.0 0.0 0.41 1.45 1.45 97 1005.3
20260505223023 8 304 0.0 0.0 0.46 1.42 1.42 97 1005.3
20260505222452 9 304 0.0 0.0 0.48 1.45 1.42 96 1005.2
20260505221947 9 304 0.0 0.0 0.43 1.37 1.35 97 1005.4
20260505221423 9 304 0.0 0.0 0.43 1.32 1.30 96 1005.2
20260505220917 9 304 0.0 0.0 0.41 1.27 1.27 96 1005.3
20260505220352 9 304 0.0 0.0 0.38 1.22 1.22 96 1005.2
20260505215847 9 304 0.0 0.0 0.46 1.22 1.19 96 1004.9
20260505215305 9 304 0.0 0.0 0.56 1.22 1.19 96 1005.2
20260505214713 9 304 0.0 0.0 0.56 1.19 1.17 96 1005.2
20260505214153 9 304 0.0 4.8 0.61 1.14 1.12 96 1005.2
20260505213637 9 304 0.0 4.8 0.61 1.07 1.04 95 1005.1
20260505213113 9 331 0.0 6.4 0.58 0.99 0.99 95 1005.3
20260505212608 10 330 1.6 6.4 0.61 0.97 0.94 95 1005.3
20260505212044 10 342 1.6 6.4 0.64 0.94 0.91 95 1005.0
20260505211540 10 342 0.0 3.2 0.61 0.89 0.86 95 1005.3
20260505211029 10 342 0.0 4.8 0.61 0.86 0.84 95 1005.0
20260505210516 11 342 0.0 4.8 0.61 0.84 0.81 95 1005.0
20260505205953 11 286 0.0 4.8 0.61 0.79 0.76 94 1005.1
20260505205441 11 283 0.0 6.4 0.56 0.69 0.66 95 1005.2
20260505205151 12 320 0.0 6.4 0.51 0.64 0.64 95 1005.0
20260505204426 12 319 0.0 0.0 0.51 0.61 0.58 95 1004.9
20260505203929 12 317 0.0 0.0 0.41 0.48 0.46 95 1005.1
20260505203615 12 319 0.0 0.0 0.36 0.43 0.41 94 1004.8
20260505202805 12 319 0.0 0.0 0.30 0.38 0.36 94 1004.8
20260505202226 12 319 0.0 1.6 0.25 0.30 0.30 94 1004.9
20260505201659 12 319 0.0 1.6 0.23 0.28 0.28 93 1004.8
20260505201156 12 321 0.0 0.0 0.23 0.28 0.25 93 1005.0
20260505200655 13 321 0.0 0.0 0.18 0.23 0.23 92 1005.0
20260505200154 13 321 0.0 4.8 0.13 0.18 0.18 92 1005.1
20260505195626 13 321 0.0 4.8 0.10 0.15 0.13 91 1005.2
20260505195038 13 348 0.0 0.0 0.08 0.13 0.10 91 1005.3
20260505194457 13 348 0.0 0.0 0.05 0.10 0.08 90 1005.1
20260505193903 13 348 0.0 1.6 0.03 0.08 0.05 89 1005.2
20260505193608 13 348 0.0 8.0 0.03 0.08 0.05 88 1005.2
20260505192847 13 299 0.0 8.0 0.03 0.08 0.05 88 1005.2
20260505192324 14 278 0.0 4.8 0.00 0.05 0.03 87 1005.3
20260505191828 14 278 0.0 4.8 0.00 0.05 0.03 87 1005.3
20260505191246 14 244 0.0 0.0 0.00 0.05 0.03 86 1005.3
20260505190933 15 241 0.0 0.0 0.00 0.05 0.03 86 1005.2
20260505190349 15 271 0.0 6.4 0.00 0.05 0.03 86 1005.3
20260505185833 15 274 0.0 6.4 0.00 0.05 0.03 85 1005.3
20260505185108 15 274 0.0 4.8 0.00 0.05 0.03 84 1005.5
20260505184522 15 274 0.0 4.8 0.00 0.05 0.03 83 1005.4
20260505183950 15 275 1.6 16.1 0.00 0.05 0.03 83 1005.5
20260505183408 15 310 1.6 16.1 0.00 0.05 0.03 82 1005.4
20260505183116 15 267 1.6 8.0 0.00 0.05 0.03 82 1005.5
20260505182312 15 263 1.6 8.0 0.00 0.05 0.03 81 1005.4
20260505182017 15 137 1.6 9.7 0.00 0.05 0.03 81 1005.4
20260505181300 15 302 3.2 11.3 0.00 0.05 0.03 80 1005.3
20260505180746 16 213 3.2 24.1 0.00 0.05 0.03 80 1005.4
20260505180206 16 207 1.6 19.3 0.00 0.05 0.03 80 1005.5
20260505175652 16 268 1.6 19.3 0.00 0.05 0.03 79 1005.3
20260505175154 16 315 0.0 9.7 0.00 0.05 0.03 80 1005.3
20260505174609 16 203 1.6 6.4 0.00 0.05 0.03 80 1005.2
20260505174050 16 251 1.6 9.7 0.00 0.05 0.03 79 1005.3
20260505173553 16 267 1.6 9.7 0.00 0.05 0.03 79 1005.2
20260505173248 16 287 1.6 8.0 0.00 0.05 0.03 79 1005.2
20260505172511 16 291 3.2 14.5 0.00 0.05 0.03 78 1005.1
20260505171936 16 279 1.6 14.5 0.00 0.05 0.03 78 1005.1
20260505171424 16 263 0.0 6.4 0.00 0.05 0.03 78 1005.1
20260505171150 16 283 1.6 6.4 0.00 0.05 0.03 78 1005.1
20260505170342 16 264 1.6 11.3 0.00 0.05 0.03 77 1005.1
20260505165810 16 268 1.6 11.3 0.00 0.05 0.03 76 1005.1
20260505165525 16 280 1.6 9.7 0.00 0.05 0.03 76 1005.1
20260505164809 16 277 3.2 22.5 0.00 0.05 0.03 75 1004.9
20260505164519 17 278 3.2 22.5 0.00 0.05 0.03 74 1005.0
20260505164026 17 269 1.6 14.5 0.00 0.05 0.03 73 1004.8
20260505163230 17 252 3.2 14.5 0.00 0.05 0.03 71 1004.8
20260505162912 18 274 3.2 19.3 0.00 0.05 0.03 70 1004.8
20260505162150 18 242 3.2 19.3 0.00 0.05 0.03 68 1004.8
20260505161920 18 236 3.2 17.7 0.00 0.05 0.03 69 1004.7
20260505161150 18 286 3.2 17.7 0.00 0.05 0.03 68 1004.8
20260505160652 18 237 3.2 16.1 0.00 0.05 0.03 67 1004.9
20260505160404 19 332 3.2 16.1 0.00 0.05 0.03 64 1004.8
20260505153008 20 169 3.2 17.7 0.00 0.05 0.03 66 1003.8
20260505152438 19 199 4.8 14.5 0.00 0.05 0.03 66 1003.6
20260505151936 19 169 6.4 19.3 0.00 0.05 0.03 69 1003.7
20260505151439 18 174 6.4 19.3 0.00 0.05 0.03 68 1003.9
20260505150912 18 192 3.2 14.5 0.00 0.05 0.03 69 1003.9
20260505150605 18 164 3.2 11.3 0.00 0.05 0.03 69 1004.0
20260505140528 18 215 11.3 27.4 0.00 0.05 0.03 71 1003.5
20260505124919 16 224 6.4 19.3 0.00 0.05 0.03 73 1003.1
20260505124356 16 182 6.4 17.7 0.00 0.05 0.03 73 1003.0
20260505123852 16 200 8.0 19.3 0.00 0.05 0.03 73 1002.9
20260505123335 17 184 8.0 19.3 0.00 0.05 0.03 72 1002.8
20260505122840 17 186 8.0 17.7 0.00 0.05 0.03 72 1002.7
20260505122327 17 179 6.4 22.5 0.00 0.05 0.03 71 1002.7
20260505121831 17 173 9.7 22.5 0.00 0.05 0.03 71 1002.5
20260505121256 17 182 12.9 33.8 0.00 0.05 0.03 69 1002.4
20260505121004 17 190 14.5 33.8 0.00 0.05 0.03 68 1002.3
20260505120230 17 181 11.3 33.8 0.00 0.05 0.03 68 1002.3
20260505115716 17 215 6.4 12.9 0.00 0.05 0.03 67 1002.5
20260505115208 17 219 8.0 16.1 0.00 0.05 0.03 68 1002.4
20260505114648 17 173 8.0 16.1 0.00 0.05 0.03 68 1002.4
20260505114120 17 177 6.4 17.7 0.00 0.05 0.03 68 1002.3
20260505113617 17 177 4.8 17.7 0.00 0.05 0.03 68 1002.6
20260505113053 17 208 4.8 9.7 0.00 0.05 0.03 68 1002.5
20260505112554 17 192 4.8 11.3 0.00 0.05 0.03 68 1002.4
20260505112040 17 191 3.2 11.3 0.00 0.05 0.03 68 1002.4
20260505111804 17 162 3.2 11.3 0.00 0.05 0.03 68 1002.5
20260505111014 18 177 4.8 16.1 0.00 0.05 0.03 67 1002.5
20260505110506 18 194 6.4 17.7 0.00 0.05 0.03 68 1002.3
20260505101736 18 198 6.4 14.5 0.00 0.05 0.03 66 1001.8
20260505101224 18 190 6.4 17.7 0.00 0.05 0.03 66 1001.6
20260505100721 18 153 6.4 14.5 0.00 0.05 0.03 66 1001.5
20260505100151 18 189 6.4 17.7 0.00 0.05 0.03 66 1001.5
20260505095620 18 175 4.8 11.3 0.00 0.05 0.03 66 1001.4
20260505095118 18 172 4.8 14.5 0.00 0.05 0.03 66 1001.3
20260505094607 18 172 8.0 27.4 0.00 0.05 0.03 66 1001.2
20260505094111 18 185 6.4 27.4 0.00 0.05 0.03 66 1001.1
20260505093542 18 181 6.4 17.7 0.00 0.05 0.03 66 1001.0
20260505093042 18 190 6.4 17.7 0.00 0.05 0.03 66 1000.8
20260505092520 18 175 6.4 16.1 0.00 0.05 0.03 65 1001.0
20260505091954 18 184 8.0 19.3 0.00 0.05 0.03 65 1000.8
20260505091428 18 192 8.0 20.9 0.00 0.05 0.03 65 1001.0
20260505091415 18 220 6.4 20.9 0.00 0.05 0.03 65 1001.0
20260505090404 18 157 6.4 16.1 0.00 0.05 0.03 65 1001.1
20260505085906 18 187 8.0 20.9 0.00 0.05 0.03 65 1001.1
20260505085358 18 224 8.0 30.6 0.00 0.05 0.03 65 1001.2
20260505084859 18 194 8.0 30.6 0.00 0.05 0.03 65 1000.7
20260505084329 18 184 8.0 25.7 0.00 0.05 0.03 65 1001.0
20260505083829 18 174 9.7 24.1 0.00 0.05 0.03 66 1001.0
20260505083305 18 181 8.0 20.9 0.00 0.05 0.03 66 1001.1
20260505082808 18 261 8.0 22.5 0.00 0.05 0.03 67 1001.1
20260505082244 18 182 8.0 22.5 0.00 0.05 0.03 67 1001.1
20260505082012 18 194 8.0 17.7 0.00 0.05 0.03 67 1001.0
20260505081215 18 180 8.0 17.7 0.00 0.05 0.03 67 1000.8
20260505080716 18 175 6.4 11.3 0.00 0.05 0.03 68 1000.7
20260505080137 18 200 6.4 14.5 0.00 0.05 0.03 68 1000.6
20260505075624 18 177 6.4 14.5 0.00 0.05 0.03 67 1000.5
20260505075356 18 278 8.0 16.1 0.00 0.05 0.03 67 1000.7
20260505074606 18 188 8.0 16.1 0.00 0.05 0.03 67 1000.6
20260505074106 18 163 6.4 16.1 0.00 0.05 0.03 67 1000.6
20260505073804 18 181 6.4 17.7 0.00 0.05 0.03 67 1000.6
20260505073035 18 174 8.0 17.7 0.00 0.05 0.03 67 1000.6
20260505072507 19 165 11.3 32.2 0.00 0.05 0.03 66 1000.7
20260505071950 19 169 11.3 32.2 0.00 0.05 0.03 65 1000.6
20260505071453 19 211 9.7 27.4 0.00 0.05 0.03 65 1000.6
20260505070923 19 178 9.7 22.5 0.00 0.05 0.03 65 1000.5
20260505070646 19 202 9.7 22.5 0.00 0.05 0.03 65 1000.5